Location: Arrodets-la-Barthe
(43.0306°N, 0.2829°E)
Time: 11:15:26
(UTC+00:00)

Cosmos 2344 - Visible Passes

Search period start: 29 May 2022 00:00
Search period end: 08 June 2022 00:00
Orbit: 1229 x 3014 km, 63.3° (Epoch: 29 May)

Date Brightness Start Highest point End Pass type
(mag) Time Alt. Az. Time Alt. Az. Time Alt. Az.
29 May 6.3 00:43:30 10° NW 00:48:54 19° N 00:55:08 10° NE visible
29 May 5.6 02:58:34 10° NNW 03:06:40 40° NE 03:17:25 10° ESE visible
29 May 3.5 19:57:35 10° SSW 20:05:11 73° ESE 20:12:41 10° NE visible
29 May 5.5 22:14:09 10° W 22:20:27 29° NNW 22:27:15 10° NNE visible
30 May 6.3 00:33:13 10° NW 00:38:38 19° N 00:44:52 10° NE visible
30 May 5.6 02:48:18 10° NNW 02:56:24 40° NE 03:07:09 10° ESE visible
30 May 3.5 19:47:18 10° SSW 19:54:54 73° ESE 20:02:25 10° NE visible
30 May 5.5 22:03:53 10° W 22:10:11 29° NNW 22:16:59 10° NNE visible
31 May 6.3 00:22:57 10° NW 00:28:22 19° N 00:34:37 10° NE visible
31 May 5.6 02:38:01 10° NNW 02:46:07 40° NE 02:56:53 10° ESE visible
31 May 5.5 21:53:37 10° W 21:59:54 29° NNW 22:06:42 10° NNE visible
01 Jun 6.3 00:12:41 10° NW 00:18:06 19° N 00:24:21 10° NE visible
01 Jun 5.6 02:27:43 10° NNW 02:35:51 41° NE 02:46:38 10° ESE visible
01 Jun 5.5 21:43:21 10° W 21:49:37 29° NNW 21:56:25 10° NNE visible
02 Jun 6.3 00:02:24 10° NW 00:07:50 19° N 00:14:05 10° NE visible
02 Jun 5.5 02:17:27 10° NNW 02:25:34 41° NE 02:36:22 10° ESE visible
02 Jun 5.6 21:33:06 10° W 21:39:21 29° NNW 21:46:09 10° NNE visible
02 Jun 6.3 23:52:08 10° NW 23:57:34 19° N 00:03:49 10° NE visible
03 Jun 5.5 02:07:11 10° NNW 02:15:18 41° NE 02:26:06 10° ESE visible
03 Jun 5.6 21:22:50 10° W 21:29:05 29° NNW 21:35:53 10° NNE visible
03 Jun 6.3 23:41:51 10° NW 23:47:18 19° N 23:53:34 10° NE visible
04 Jun 5.5 01:56:54 10° NNW 02:05:02 41° NE 02:15:50 10° ESE visible
04 Jun 5.6 21:12:34 10° W 21:18:49 29° NNW 21:25:36 10° NNE visible
04 Jun 6.3 23:31:35 10° NW 23:37:02 19° N 23:43:17 10° NE visible
05 Jun 5.5 01:46:37 10° NNW 01:54:45 41° NE 02:05:34 10° ESE visible
05 Jun 5.7 21:02:17 10° W 21:08:32 29° NNW 21:15:20 10° NNE visible
05 Jun 6.2 23:21:19 10° NW 23:26:46 19° N 23:33:02 10° NE visible
06 Jun 5.4 01:36:21 10° NNW 01:44:29 41° NE 01:55:18 10° ESE visible
06 Jun 5.7 20:52:01 10° W 20:58:16 28° NNW 21:05:03 10° NNE visible
06 Jun 6.2 23:11:03 10° NW 23:16:30 19° N 23:22:46 10° NE visible
07 Jun 5.4 01:26:04 10° NNW 01:34:12 41° NE 01:45:02 10° ESE visible
07 Jun 4.5 03:40:08 10° NW 03:49:28 67° WSW 04:02:34 10° SSE visible
07 Jun 5.7 20:41:45 10° W 20:48:00 28° NNW 20:54:46 10° NNE visible
07 Jun 6.2 23:00:47 10° NW 23:06:14 19° N 23:12:30 10° NE visible
